Home > Weather > Talcahuano > Past weeks

Flag for Chile Past Weather in Talcahuano, Chile — Yesterday and Last 2 Weeks

Now
52 °F

Cool.


Feels Like: 47 °F
Forecast: 50 / 57 °F
Wind: 14 mph from North

Location: Concepcion Airport

Current Time: Jul 28, 2016 at 2:29:47 PM

Latest Report: Jul 28, 2016 at 2:00 PM


Visibility: 1 mi

Pressure: 30.01 "Hg

Humidity: 100%

Dew Point: 52 °F

Location of TalcahuanoLocation

Past Weather in Talcahuano — Graph

°F

Talcahuano Temperature Yesterday

Maximum temperature yesterday: 57 °F (at 3:00 PM)
Minimum temperature yesterday: 45 °F (at 8:00 AM)
Average temperature yesterday: 50 °F

High & Low Weather Summary for the Past Weeks

 TemperatureHumidityPressure
High59 °F (Jul 18, 4:00 PM)100% (Jul 13, 5:00 PM)30.39 "Hg (Jul 13, 5:00 PM)
Low32 °F (Jul 15, 8:00 AM)55% (Jul 15, 3:00 PM)29.42 "Hg (Jul 13, 3:00 PM)
Average50 °F88%30.07 "Hg
* Reported Jul 13 1:00 PM — Jul 28 1:00 PM, Talcahuano, Weather by CustomWeather, © 2016

Note: Actual official high and low records may vary slightly from our data, if they occured in-between our weather recording intervals... More about our weather records

Advertising

Talcahuano Weather History for the Previous 24 Hours

Scroll right to see more
 ConditionsComfort  
Time TempWeatherWind HumidityBarometerVisibility
1:00 PM
Thu, Jul 28
52 °FDrizzle. Fog.13 mph100%30.01 "Hg1 mi
12:00 PM52 °FCool.12 mph94%30.04 "Hg1 mi
11:00 AM50 °FDrizzle. Mostly cloudy.12 mph94%30.04 "Hg2 mi
10:00 AM52 °FMostly cloudy.3 mph82%30.01 "HgN/A
9:00 AM50 °FMostly cloudy.2 mph88%30.01 "HgN/A
8:00 AM50 °FBroken clouds.3 mph88%30.01 "HgN/A
7:00 AM50 °FBroken clouds.5 mph88%30.01 "HgN/A
6:00 AM50 °FOvercast.3 mph88%30.01 "HgN/A
5:00 AM50 °FMostly cloudy.5 mph94%30.01 "HgN/A
4:00 AM50 °FMostly cloudy.3 mph88%30.01 "HgN/A
3:00 AM50 °FMostly cloudy.2 mph94%30.04 "HgN/A
2:00 AM50 °FPartly cloudy.3 mph94%30.04 "HgN/A
1:00 AM50 °FMostly cloudy.3 mph94%30.07 "HgN/A
12:00 AM50 °FPartly cloudy.2 mph88%30.07 "HgN/A
11:00 PM
Wed, Jul 27
50 °FPartly cloudy.3 mph94%30.04 "HgN/A
10:00 PM48 °FMostly cloudy.No wind94%30.07 "HgN/A
9:00 PM48 °FPassing clouds.2 mph87%30.04 "HgN/A
8:00 PM48 °FClear.No wind94%30.04 "Hg10 mi
7:00 PM50 °FClear.No wind88%30.04 "Hg10 mi
6:00 PM52 °FPassing clouds.6 mph82%30.01 "HgN/A
5:00 PM54 °FSunny.6 mph77%30.01 "Hg10 mi
4:00 PM54 °FSunny.7 mph72%30.01 "Hg10 mi
3:00 PM57 °FPassing clouds.6 mph63%30.01 "HgN/A
2:00 PM55 °FPassing clouds.8 mph63%30.01 "HgN/A
Weather by CustomWeather, © 2016

See weather overviewHow to use our weather pages